Regional Weather Roundup
Issued by NWS

Home | Current Version | Previous Version | Graphics & Text | Print | Product List | Glossary On
Versions: 1 2 3 4 5 6 7 8 9 10 11 12 13 14 15 16 17 18 19 20 21 22 23 24 25 26 27 28 29 30 31 32 33 34 35 36 37 38 39 40 41 42 43 44 45 46 47 48 49 50
000
ASUS43 KOAX 011002
RWRNE

WEATHER ROUNDUP FOR NEBRASKA
NATIONAL WEATHER SERVICE OMAHA NE
500 AM CDT MON SEP 01 2014

NOTES: SATELLITE DATA IS BEING USED TO AUGMENT CLOUD COVER ABOVE
       12000 FEET.
       "FAIR" INDICATES FEW OR NO CLOUDS BELOW 12,000 FEET WITH NO
       SIGNIFICANT WEATHER AND/OR OBSTRUCTIONS TO VISIBILITY.

  * THESE STATIONS DO NOT REPORT WEATHER SUCH AS RAIN...SNOW OR FOG.

NEZ001>004-019>022-054>056-011100-
NEBRASKA PANHANDLE

CITY           SKY/WX    TMP DP  RH WIND       PRES   REMARKS
SCOTTSBLUFF    CLEAR     50  48  93 NW3       29.99R
ALLIANCE       CLEAR     45  44  97 W8        29.95F
CHADRON        CLEAR     49  47  93 W6        29.94S
KIMBALL        PTCLDY    47  45  95 NW10      30.00F
SIDNEY         PTCLDY    51  46  83 NW12      30.01R
$$

NEZ057>060-069>072-079>082-011100-
SOUTHWEST NEBRASKA

CITY           SKY/WX    TMP DP  RH WIND       PRES   REMARKS
NORTH PLATTE   CLEAR     49  48  97 NW7       29.92S
IMPERIAL       CLEAR     55  51  86 W6        29.96R
LEXINGTON      CLEAR     55  53  94 W6        29.90R
MCCOOK         CLEAR     55  52  89 W8        29.93S
OGALLALA       CLEAR     53  49  86 NW12      29.95F
$$

NEZ005>010-023>029-035>040-094-011100-
NORTH CENTRAL NEBRASKA

CITY           SKY/WX    TMP DP  RH WIND       PRES   REMARKS
VALENTINE      CLEAR     53  52  96 SW3       29.88R
AINSWORTH      CLEAR     54  53  97 NW9       29.87F
BROKEN BOW     CLEAR     55  51  86 NW6       29.88R
O`NEILL        CLEAR     57  56  97 W7        29.83R
ORD            CLEAR     56  54  93 NW8       29.84R
THEDFORD       CLEAR     52  51  95 W7        29.91S
$$

NEZ041-046>049-061>064-073>077-083>087-011100-
SOUTH CENTRAL NEBRASKA

CITY           SKY/WX    TMP DP  RH WIND       PRES   REMARKS
GRAND ISLAND   CLEAR     60  56  86 W12       29.82R
AURORA         CLEAR     58  57  97 NW7       29.80R
HASTINGS       CLEAR     60  54  80 NW14      29.83R
HEBRON         CLEAR     64  60  87 S5        29.81R
HOLDREGE       CLEAR     57  54  91 CALM      29.87S
KEARNEY *      CLEAR     57  54  88 W14       29.86S
$$

NEZ011>018-030>034-042>045-011100-
NORTHEAST NEBRASKA

CITY           SKY/WX    TMP DP  RH WIND       PRES   REMARKS
NORFOLK        PTCLDY    61  58  90 W12       29.77R
ALBION         CLEAR     61  57  88 NW8       29.80R
BLAIR          CLOUDY    67  65  90 W6        29.72S
FREMONT        PTCLDY    64  62  94 CALM      29.73S
TEKAMAH        CLEAR     63  61  93 W3        29.71S
WAYNE          PTCLDY    60  59  96 CALM      29.75R
$$

NEZ050>053-065>068-078-088>093-011100-
SOUTHEAST NEBRASKA

CITY           SKY/WX    TMP DP  RH WIND       PRES   REMARKS
LINCOLN        PTCLDY    65  62  90 CALM      29.75R
OMAHA EPPLEY   CLOUDY    69  65  86 SW5       29.73R
BEATRICE       CLOUDY    68  67  96 SW10      29.78R
FALLS CITY     CLOUDY    68  66  93 SW9       29.77R
NEBRASKA CITY  CLOUDY    67  67 100 SW12      29.76R
PLATTSMOUTH    CLOUDY    67  65  91 S7        29.74R
$$

NEZ044-045-051>053-067-011100-
OMAHA AREA

CITY           SKY/WX    TMP DP  RH WIND       PRES   REMARKS
OMAHA EPPLEY   CLOUDY    69  65  86 SW5       29.73R
BLAIR          CLOUDY    67  65  90 W6        29.72S
FREMONT        PTCLDY    64  62  94 CALM      29.73S
MILLARD        CLOUDY    69  66  90 W6        29.72S
OFFUTT AFB     CLOUDY    68  68  99 SW3       29.73R
PLATTSMOUTH    CLOUDY    67  65  91 S7        29.74R
WAHOO          FAIR      64  61  91 CALM      29.73R
$$



USA.gov is the U.S. government's official web portal to all federal, state and local government web resources and services.